Tracking 34094 objects as of 11-May-2026
HD Live streaming from Space Station
objects crossing your sky now

SATCOM 3 DEB

Track SATCOM 3 DEB now!


NORAD ID: 32987
Int'l Code: 1979-101N
Perigee: 7,934.7 km
Apogee: 35,698.3 km
Inclination: 9.9 °
Period: 785.0 minutes
Semi major axis: 28187 km
RCS: 0.005 m2 (small)
Launch date: December 7, 1979
Source: United States (US)
Launch site: AIR FORCE EASTERN TEST RANGE (AFETR)

Note: This is SATELLITE DEBRIS
Your satellite tracking list
Your tracking list is empty




NASA's NSSDC Master Catalog

Two Line Element Set (TLE):
1 32987U 79101N   26129.11721155 -.00000144  00000-0  00000-0 0  9990
2 32987   9.9469  32.3317 4924806 209.2841 340.9604  1.83449881122171
Source of the keplerian elements: AFSPC